[[{"header":{"parameterUnit":"m.s-1","parameterCategory":1,"la1":30.2991,"la2":30.254,"lo1":-89.0895,"lo2":-89.0444,"dy":0.0017,"dx":0.0017,"nx":28,"ny":28,"refTime":"2024-10-16T09:00:00:Z","depth":0,"parameterNumber":2,"parameterNumberName":"U-component_of_WINDS"},"data":[0,0,0,0,0,0,0,0,0,0,0,0,0,0,0,0,0,0,0,0,0,0,0,0,0,0,0,0,0,0,0,0,0,0,0,0,0,0,0,0,0,0,0,0,0,0,0,0,0,0,0,0,0,0,0,0,0,0,-3.554,-3.5541,0,-3.5597,-3.5598,-3.5598,-3.5503,-3.55,-3.5497,-3.5494,-3.5549,-3.5553,-3.5558,0,0,0,0,0,0,0,0,0,0,0,0,0,-3.5347,-3.5351,-3.554,-3.5541,-3.5542,-3.5597,-3.5598,-3.5598,-3.5504,-3.55,-3.5496,-3.5492,-3.5548,-3.5553,-3.5558,0,0,0,0,0,0,0,0,0,0,0,0,0,-3.542,-3.5352,-3.554,-3.5501,-3.5499,-3.5597,-3.5598,-3.5599,-3.5505,-3.55,-3.5495,-3.5491,-3.5546,-3.5552,-3.5559,-3.5697,0,0,-3.5579,-3.5582,0,0,0,0,0,0,0,0,-3.5416,-3.5427,-3.5506,-3.5504,-3.5501,-3.5538,-3.5549,-3.5631,-3.5506,-3.5502,-3.5494,-3.5488,-3.5549,-3.5555,-3.5576,-3.5699,-3.5702,-3.558,-3.5584,-3.5587,-3.5589,0,0,0,0,0,0,0,-3.5411,-3.5424,-3.5563,-3.5508,-3.5505,-3.548,-3.5485,-3.5564,-3.5552,-3.5502,-3.5496,-3.5504,-3.5547,-3.557,-3.5577,-3.5703,-3.558,-3.5586,-3.559,-3.5592,-3.5938,-3.5943,0,0,0,0,0,0,-3.5411,-3.542,-3.5561,-3.5564,-3.5446,-3.5487,-3.5493,-3.5531,-3.5551,-3.5549,-3.5508,-3.5499,-3.5561,-3.5569,-3.5579,-3.5738,-3.5587,-3.5593,-3.5597,-3.5933,-3.5939,-3.5945,0,0,0,0,0,0,-3.5407,-3.5424,-3.5559,-3.5491,-3.5506,-3.5496,-3.5539,-3.5535,-3.5558,-3.5555,-3.5552,-3.5534,-3.5558,-3.5569,-3.5667,-3.5739,-3.5596,-3.5602,-3.5927,-3.5935,-3.5942,-3.6061,0,0,0,0,0,0,-3.5402,-3.5424,-3.5477,-3.5493,-3.551,-3.5648,-3.5544,-3.5539,-3.557,-3.5559,-3.5579,-3.5578,-3.5555,-3.5658,-3.5674,-3.5746,-3.5607,-3.592,-3.593,-3.5939,-3.605,-3.6072,-3.609,0,0,0,0,0,-3.5395,-3.5508,-3.548,-3.5498,-3.5576,-3.5653,-3.5662,-3.5634,-3.5577,-3.5629,-3.5627,-3.5577,-3.5729,-3.5669,-3.5686,-3.5761,-3.5915,-3.5927,-3.5939,-3.6042,-3.6068,-3.609,0,0,0,0,0,0,-3.5501,-3.551,-3.5478,-3.56,-3.5626,-3.5636,-3.5702,-3.5663,-3.5706,-3.5694,-3.5656,-3.5662,-3.5767,-3.5774,-3.5707,-3.5894,-3.5812,-3.5828,-3.5885,-3.5909,-3.5929,-3.5923,-3.5613,0,0,0,0,0,-3.5539,-3.5601,-3.5605,-3.5712,-3.5726,-3.5712,-3.5744,-3.5721,-3.5746,-3.5756,-3.5761,-3.5787,-3.5839,-3.5875,-3.5924,-3.6052,-3.6053,-3.6112,-3.6131,-3.6148,-3.6161,-3.6225,-3.625,-3.5983,-3.5983,-3.5982,0,0,-3.5616,-3.5629,-3.567,-3.5733,-3.575,-3.5814,-3.5722,-3.5794,-3.584,-3.5767,-3.5859,-3.5864,-3.589,-3.6003,-3.6052,-3.6012,-3.6235,-3.6162,-3.6175,-3.6179,-3.624,-3.6265,-3.6288,-3.5991,-3.5989,-3.5988,0,0,-3.5789,-3.5807,-3.5896,-3.5916,-3.5943,-3.5933,-3.5955,-3.5971,-3.5971,-3.6064,-3.6009,-3.6063,-3.6157,-3.6176,-3.6198,-3.6378,-3.6333,-3.6396,-3.6497,-3.6561,-3.6582,-3.66,-3.6661,-3.6684,-3.6409,-3.6409,-3.641,0,-3.5882,-3.5977,-3.5947,-3.6022,-3.6049,-3.5987,-3.6076,-3.6096,-3.6138,-3.6158,-3.6113,-3.6227,-3.624,-3.6355,-3.6398,-3.642,-3.6441,-3.6392,-3.6582,-3.66,-3.6616,-3.6674,-3.6697,-3.6417,-3.6416,-3.6415,-3.6414,0,-3.6087,-3.6154,-3.6223,-3.6265,-3.6301,-3.6383,-3.6363,-3.6403,-3.6376,-3.637,-3.6464,-3.6478,-3.6527,-3.6553,-3.6528,-3.6664,-3.6638,-3.6588,-3.6505,-3.665,-3.6703,-3.6725,-3.6427,-3.6424,-3.6422,-3.642,0,0,-3.6327,-3.6352,-3.6377,-3.6394,-3.642,-3.647,-3.6548,-3.6597,-3.663,-3.6662,-3.6724,-3.6804,-3.6758,-3.6783,-3.6759,-3.6816,-3.6953,-3.6758,-3.6758,-3.6791,-3.71,-3.7135,-3.7161,-3.6925,-3.6929,-3.6932,-3.7097,0,-3.6497,-3.6632,-3.6607,-3.6737,-3.6796,-3.6738,-3.6806,-3.6828,-3.6825,-3.6873,-3.6869,-3.6925,-3.6861,-3.6875,-3.6929,-3.6925,-3.7014,-3.6914,-3.6979,-3.6982,-3.6971,-3.719,-3.7227,-3.7382,-3.7118,-3.7121,-3.7124,0,-3.6713,-3.6752,-3.6889,-3.6903,-3.6927,-3.6988,-3.7029,-3.7077,-3.7101,-3.7094,-3.7122,-3.7088,-3.7163,-3.7082,-3.7183,-3.7115,-3.7141,-3.7143,-3.7149,-3.7151,-3.7059,-3.7194,-3.7431,-3.7453,-3.7157,-3.7154,-3.7152,0,-3.687,-3.6957,-3.7049,-3.7066,-3.7086,-3.713,-3.714,-3.7159,-3.7189,-3.7225,-3.7244,-3.7289,-3.7312,-3.7347,-3.7324,-3.7268,-3.7429,-3.7346,-3.7423,-3.7423,-3.7457,-3.7454,-3.7697,-3.748,-3.7479,-3.7479,-3.7478,0,-3.706,-3.7145,-3.7119,-3.7176,-3.7268,-3.7238,-3.733,-3.7334,-3.7351,-3.7405,-3.7358,-3.741,-3.7379,-3.7428,-3.7411,-3.7496,-3.7508,-3.7503,-3.7497,-3.7505,-3.7505,-3.7519,-3.7506,-3.7485,-3.7484,-3.7482,-3.7481,0,-3.7249,-3.7236,-3.7332,-3.7343,-3.7348,-3.7415,-3.7424,-3.7475,-3.7469,-3.7538,-3.7552,-3.7541,-3.7596,-3.7578,-3.7638,-3.7626,-3.7733,-3.7715,-3.7725,-3.7719,-3.7795,-3.7787,-3.8052,-3.8084,-3.785,-3.7852,-3.7854,0,-3.737,-3.7433,-3.7451,-3.7485,-3.7498,-3.7553,-3.7583,-3.7556,-3.759,-3.762,-3.7668,-3.7719,-3.7758,-3.7848,-3.7844,-3.7889,-3.7869,-3.7959,-3.7875,-3.7881,-3.7866,-3.7861,-3.7866,-3.7975,-3.7977,-3.798,-3.7981,0,-3.7583,-3.7573,-3.762,-3.7664,-3.7701,-3.7734,-3.7763,-3.7793,-3.7767,-3.7807,-3.7863,-3.7893,-3.7953,-3.8003,-3.8043,-3.8052,-3.8012,-3.8008,-3.8028,-3.8035,-3.8037,-3.8033,-3.7767,-3.8002,-3.8,-3.7998,-3.7997,-3.7996,-3.7739,-3.7792,-3.7812,-3.7865,-3.7884,-3.7911,-3.7959,-3.7959,-3.8005,-3.8052,-3.8033,-3.8097,-3.8116,-3.8166,-3.818,-3.8228,-3.8193,-3.8222,-3.8229,-3.8236,-3.8244,-3.8033,-3.8236,-3.8235,-3.8235,-3.8234,-3.8234,0,-3.7947,-3.7958,-3.8006,-3.8048,-3.8088,-3.8049,-3.8078,-3.8114,-3.8171,-3.8193,-3.8233,-3.8295,-3.8344,-3.8344,-3.8389,-3.8427,-3.8409,-3.8439,-3.8434,-3.8436,-3.8274,-3.8251,-3.8452,-3.8452,-3.8452,-3.8452,-3.8452,-3.8452,-3.806,-3.8146,-3.8139,-3.8233,-3.8242,-3.8305,-3.8324,-3.8349,-3.8366,-3.8438,-3.8478,-3.8479,-3.8491,-3.8536,-3.8578,-3.8577,-3.8593,-3.863,-3.8621,-3.8469,-3.8448,-3.8427,-3.8405,-3.8635,-3.8635,-3.8778,-3.8779,-3.878]},{"header":{"parameterUnit":"m.s-1","parameterCategory":1,"la1":30.2991,"la2":30.254,"lo1":-89.0895,"lo2":-89.0444,"dy":0.0017,"dx":0.0017,"nx":28,"ny":28,"refTime":"2024-10-16T09:00:00:Z","depth":0,"parameterNumber":3,"parameterNumberName":"V-component_of_WINDS"},"data":[0,0,0,0,0,0,0,0,0,0,0,0,0,0,0,0,0,0,0,0,0,0,0,0,0,0,0,0,0,0,0,0,0,0,0,0,0,0,0,0,0,0,0,0,0,0,0,0,0,0,0,0,0,0,0,0,0,0,-2.8258,-2.8259,0,-2.8315,-2.8315,-2.8316,-2.8296,-2.8295,-2.8294,-2.8292,-2.8348,-2.8351,-2.8354,0,0,0,0,0,0,0,0,0,0,0,0,0,-2.813,-2.8132,-2.8258,-2.8259,-2.8259,-2.8314,-2.8315,-2.8316,-2.8296,-2.8295,-2.8293,-2.8292,-2.8348,-2.8351,-2.8354,0,0,0,0,0,0,0,0,0,0,0,0,0,-2.8186,-2.8133,-2.8258,-2.8256,-2.8257,-2.8314,-2.8315,-2.8316,-2.8297,-2.8295,-2.8293,-2.8291,-2.8347,-2.835,-2.8354,-2.8416,0,0,-2.8366,-2.8368,0,0,0,0,0,0,0,0,-2.8183,-2.819,-2.8256,-2.8256,-2.8257,-2.8296,-2.829,-2.835,-2.8297,-2.8281,-2.8292,-2.829,-2.8332,-2.8337,-2.8352,-2.8419,-2.8421,-2.8367,-2.8369,-2.8371,-2.8372,0,0,0,0,0,0,0,-2.8179,-2.8188,-2.828,-2.8257,-2.8257,-2.8252,-2.8258,-2.8302,-2.8317,-2.8283,-2.8281,-2.8288,-2.8332,-2.8348,-2.8353,-2.8422,-2.8367,-2.837,-2.8373,-2.8374,-2.854,-2.8542,0,0,0,0,0,0,-2.8175,-2.8185,-2.8278,-2.8282,-2.8214,-2.8255,-2.8262,-2.8286,-2.8316,-2.8319,-2.829,-2.8287,-2.8342,-2.8349,-2.8355,-2.8428,-2.8371,-2.8375,-2.8377,-2.8538,-2.854,-2.8543,0,0,0,0,0,0,-2.8172,-2.8183,-2.8276,-2.8233,-2.8244,-2.826,-2.8286,-2.8288,-2.8304,-2.8322,-2.8324,-2.8304,-2.8341,-2.835,-2.8401,-2.843,-2.8376,-2.838,-2.8536,-2.8539,-2.8541,-2.8575,0,0,0,0,0,0,-2.8169,-2.8183,-2.8207,-2.8234,-2.8247,-2.8322,-2.8288,-2.829,-2.8311,-2.8308,-2.8335,-2.8338,-2.834,-2.8395,-2.8405,-2.8434,-2.8383,-2.8533,-2.8537,-2.8541,-2.8571,-2.8579,-2.8585,0,0,0,0,0,-2.8164,-2.8214,-2.8208,-2.822,-2.8278,-2.8324,-2.8331,-2.8333,-2.8313,-2.8337,-2.8349,-2.8337,-2.8425,-2.84,-2.8411,-2.8442,-2.8531,-2.8536,-2.854,-2.8568,-2.8577,-2.8585,0,0,0,0,0,0,-2.819,-2.8218,-2.8212,-2.8272,-2.8296,-2.832,-2.8351,-2.8343,-2.8373,-2.8368,-2.837,-2.8376,-2.8428,-2.8441,-2.8412,-2.8503,-2.8475,-2.8482,-2.8493,-2.8501,-2.8508,-2.8503,-2.8386,0,0,0,0,0,-2.8203,-2.8239,-2.8261,-2.8312,-2.8324,-2.8336,-2.8356,-2.8355,-2.8379,-2.8389,-2.8404,-2.8427,-2.846,-2.8482,-2.8513,-2.8573,-2.8578,-2.86,-2.8607,-2.8612,-2.8618,-2.8649,-2.8658,-2.8557,-2.8557,-2.8557,0,0,-2.823,-2.825,-2.8272,-2.8318,-2.8336,-2.8372,-2.8344,-2.8383,-2.8409,-2.8395,-2.8444,-2.8456,-2.8481,-2.8537,-2.8562,-2.8549,-2.8647,-2.8618,-2.8623,-2.8625,-2.8654,-2.8664,-2.8672,-2.8561,-2.856,-2.8559,0,0,-2.8297,-2.8317,-2.836,-2.8379,-2.8407,-2.8414,-2.8424,-2.845,-2.8457,-2.8506,-2.8496,-2.8526,-2.8583,-2.8601,-2.8618,-2.869,-2.868,-2.87,-2.8736,-2.8766,-2.8774,-2.8781,-2.8805,-2.8813,-2.8706,-2.8706,-2.8706,0,-2.8327,-2.8381,-2.8384,-2.8423,-2.8443,-2.8432,-2.8475,-2.8493,-2.8529,-2.8543,-2.8527,-2.8597,-2.8614,-2.8673,-2.869,-2.8705,-2.8715,-2.8697,-2.8773,-2.878,-2.8786,-2.8809,-2.8818,-2.8708,-2.8708,-2.8708,-2.8708,0,-2.8415,-2.8453,-2.8485,-2.852,-2.8543,-2.8585,-2.8592,-2.8615,-2.8613,-2.8621,-2.867,-2.869,-2.8724,-2.8738,-2.8736,-2.8796,-2.8786,-2.8772,-2.8744,-2.8798,-2.8819,-2.8828,-2.8711,-2.8711,-2.871,-2.871,0,0,-2.85,-2.8536,-2.8547,-2.8562,-2.8592,-2.862,-2.866,-2.8694,-2.8713,-2.8738,-2.8771,-2.8818,-2.8805,-2.8824,-2.8824,-2.885,-2.8904,-2.8832,-2.8833,-2.8843,-2.8968,-2.8978,-2.8988,-2.8898,-2.8899,-2.8901,-2.8966,0,-2.8568,-2.8639,-2.8642,-2.8706,-2.874,-2.8729,-2.8764,-2.8785,-2.8793,-2.8822,-2.8831,-2.8864,-2.8845,-2.8856,-2.8882,-2.8892,-2.8929,-2.8887,-2.8926,-2.8928,-2.8919,-2.9,-2.901,-2.907,-2.8974,-2.8976,-2.8977,0,-2.8657,-2.8684,-2.8752,-2.8775,-2.8789,-2.882,-2.885,-2.8879,-2.8902,-2.8906,-2.8926,-2.8922,-2.8962,-2.8933,-2.8987,-2.8958,-2.8974,-2.8982,-2.8984,-2.8987,-2.8954,-2.9002,-2.909,-2.9098,-2.899,-2.8989,-2.8988,0,-2.8709,-2.8764,-2.8811,-2.8824,-2.8853,-2.8875,-2.8887,-2.8909,-2.8928,-2.8954,-2.8966,-2.8997,-2.9013,-2.9036,-2.904,-2.9019,-2.9092,-2.9065,-2.9095,-2.9095,-2.911,-2.9109,-2.92,-2.9124,-2.9124,-2.9123,-2.9123,0,-2.8784,-2.8825,-2.8835,-2.8863,-2.8909,-2.8911,-2.8955,-2.8966,-2.8985,-2.9015,-2.9008,-2.9036,-2.9039,-2.9068,-2.9071,-2.9113,-2.9121,-2.9124,-2.9124,-2.9124,-2.9123,-2.9134,-2.9129,-2.9126,-2.9125,-2.9125,-2.9124,0,-2.885,-2.8858,-2.8908,-2.8931,-2.8938,-2.897,-2.8988,-2.9015,-2.9023,-2.906,-2.9069,-2.9081,-2.9113,-2.9119,-2.9158,-2.916,-2.9211,-2.9207,-2.9203,-2.9202,-2.9231,-2.9228,-2.9331,-2.9343,-2.926,-2.9261,-2.9262,0,-2.8896,-2.8928,-2.8953,-2.8973,-2.8987,-2.9018,-2.9038,-2.9041,-2.9062,-2.9089,-2.9112,-2.9145,-2.917,-2.9223,-2.9234,-2.9263,-2.926,-2.9294,-2.9264,-2.9262,-2.9258,-2.9255,-2.9257,-2.9299,-2.93,-2.93,-2.9301,0,-2.8977,-2.8979,-2.9008,-2.9038,-2.9061,-2.9085,-2.9108,-2.9124,-2.913,-2.9153,-2.9186,-2.9206,-2.9246,-2.9277,-2.9306,-2.9318,-2.931,-2.931,-2.9319,-2.9318,-2.9313,-2.9314,-2.9216,-2.9308,-2.9307,-2.9307,-2.9306,-2.9306,-2.9033,-2.9059,-2.9081,-2.9113,-2.913,-2.9151,-2.9177,-2.9187,-2.9216,-2.9248,-2.9248,-2.9284,-2.9305,-2.9343,-2.9357,-2.9384,-2.9373,-2.9386,-2.9389,-2.9391,-2.9393,-2.931,-2.939,-2.9389,-2.9389,-2.9389,-2.9389,0,-2.9111,-2.9124,-2.9154,-2.9185,-2.921,-2.9201,-2.9225,-2.9246,-2.9278,-2.9298,-2.9324,-2.9361,-2.9391,-2.9405,-2.9434,-2.9453,-2.945,-2.9461,-2.9458,-2.9461,-2.9402,-2.9391,-2.9462,-2.9462,-2.9462,-2.9462,-2.9462,-2.9462,-2.9155,-2.9199,-2.9203,-2.9255,-2.9268,-2.9303,-2.9318,-2.9336,-2.9352,-2.9394,-2.9419,-2.9428,-2.9445,-2.9475,-2.9502,-2.9505,-2.9515,-2.9527,-2.9528,-2.9473,-2.9465,-2.9458,-2.9448,-2.953,-2.953,-2.9584,-2.9585,-2.9585]}]]